Date String (YYYY-MM-DD hh:mm:ss) UTC,Instrument flags,absolute air pressure of the measurement (hPa),sample flow rate (lpm),inlet stack bypass flow (lpm),air temperature of the measurement (°C),ambient temperature measured by the external sensor (°C),aerosol sample conditioner tube jacket temperature (°C),OPC LED temperature (°C),internal box temperature (°C),relative humidity of the measurement (%),span deviation,mass concentration of particles derived from Lorenz-Mie calculation of OPC scattering (μg/m³),mass concentration of particles derived from Lorenz-Mie calculation of OPC scattering (μg/m³),mass concentration of particles derived from Lorenz-Mie calculation of OPC scattering (μg/m³)
DateTimeUTC,F1_M11,P_M11,Q1_M11,Q2_M11,T1_M11,T2_M11,T3_M11,T4_M11,T5_M11,U1_M11,ZSPAN_M11,X0_M11,X2_M11,X1_M11
2023-06-02 23:00:00,SystemResetWarning,0826.5,5.00,000.00,029.7,028.5,000.0,038.0,031.4,20.8,0000.0,0002.82,0000.90,0000.68
2023-06-02 23:01:00,SystemResetWarning,0826.5,5.00,000.00,029.8,028.5,000.0,038.0,031.5,20.9,0000.0,0002.80,0000.89,0000.67
2023-06-02 23:02:00,SystemResetWarning,0826.5,4.99,000.00,029.8,027.4,000.0,038.0,031.3,21.4,0000.0,0002.87,0000.91,0000.66
2023-06-02 23:03:00,SystemResetWarning,0826.4,5.01,000.00,029.7,026.0,000.0,037.9,031.1,20.9,0000.0,0002.93,0000.93,0000.65
2023-06-02 23:04:00,SystemResetWarning,0826.4,5.01,000.00,029.6,025.8,000.0,037.8,031.0,21.5,0000.0,0002.94,0000.93,0000.64
2023-06-02 23:05:00,SystemResetWarning,0826.5,5.01,000.00,029.5,026.0,000.0,037.8,031.0,21.5,0000.0,0003.03,0000.96,0000.63
2023-06-02 23:06:00,SystemResetWarning,0826.6,5.00,000.00,029.5,026.3,000.0,037.8,031.0,20.7,0000.0,0003.56,0001.00,0000.63
2023-06-02 23:07:00,SystemResetWarning,0826.6,5.00,000.00,029.5,026.7,000.0,037.9,031.0,21.2,0000.0,0004.21,0001.03,0000.64
2023-06-02 23:08:00,SystemResetWarning,0826.6,5.00,000.00,029.5,027.0,000.0,037.9,031.1,20.6,0000.0,0004.03,0001.01,0000.62
2023-06-02 23:09:00,SystemResetWarning,0826.6,5.01,000.00,029.5,027.3,000.0,037.9,031.1,20.1,0000.0,0002.86,0000.96,0000.61
2023-06-02 23:10:00,SystemResetWarning,0826.6,5.00,000.00,029.5,027.5,000.0,037.9,031.1,20.7,0000.0,0002.82,0000.95,0000.60
2023-06-02 23:11:00,SystemResetWarning,0826.6,4.99,000.00,029.5,027.6,000.0,037.9,031.2,20.6,0000.0,0002.64,0000.95,0000.60
2023-06-02 23:12:00,SystemResetWarning,0826.6,5.00,000.00,029.5,027.8,000.0,037.9,031.2,20.4,0000.0,0002.68,0000.96,0000.60
2023-06-02 23:13:00,SystemResetWarning,0826.6,5.01,000.00,029.5,027.9,000.0,037.9,031.2,20.5,0000.0,0002.60,0000.92,0000.59
2023-06-02 23:14:00,SystemResetWarning,0826.6,5.01,000.00,029.6,028.0,000.0,037.9,031.2,19.9,0000.0,0002.44,0000.87,0000.59
2023-06-02 23:15:00,SystemResetWarning,0826.6,5.00,000.00,029.6,028.1,000.0,037.9,031.3,20.2,0000.0,0002.51,0000.91,0000.59
2023-06-02 23:16:00,SystemResetWarning,0826.6,4.99,000.00,029.6,028.2,000.0,037.9,031.3,19.8,0000.0,0002.48,0000.89,0000.58
2023-06-02 23:17:00,SystemResetWarning,0826.7,4.99,000.00,029.6,028.3,000.0,037.9,031.3,19.7,0000.0,0002.24,0000.88,0000.57
2023-06-02 23:18:00,SystemResetWarning,0826.8,5.00,000.00,029.6,028.3,000.0,037.9,031.3,19.6,0000.0,0001.45,0000.84,0000.55
2023-06-02 23:19:00,SystemResetWarning,0826.8,5.01,000.00,029.7,028.3,000.0,037.9,031.4,19.7,0000.0,0001.38,0000.82,0000.54
2023-06-02 23:20:00,SystemResetWarning,0826.8,5.01,000.00,029.7,028.4,000.0,038.0,031.4,19.2,0000.0,0001.46,0000.85,0000.54
2023-06-02 23:21:00,SystemResetWarning,0826.8,4.99,000.00,029.7,028.4,000.0,038.0,031.4,19.2,0000.0,0001.46,0000.86,0000.54
2023-06-02 23:22:00,SystemResetWarning,0826.8,4.99,000.00,029.7,028.4,000.0,038.0,031.4,19.9,0000.0,0001.42,0000.83,0000.52
2023-06-02 23:23:00,SystemResetWarning,0826.8,5.00,000.00,029.7,028.5,000.0,038.0,031.4,20.0,0000.0,0001.41,0000.83,0000.51
2023-06-02 23:24:00,SystemResetWarning,0826.8,5.01,000.00,029.8,028.5,000.0,038.0,031.5,19.7,0000.0,0001.46,0000.85,0000.50
2023-06-02 23:25:00,SystemResetWarning,0826.8,5.00,000.00,029.8,027.2,000.0,038.0,031.3,20.1,0000.0,0001.50,0000.86,0000.49
2023-06-02 23:26:00,SystemResetWarning,0826.8,5.00,000.00,029.7,025.9,000.0,037.9,031.1,20.3,0000.0,0001.42,0000.80,0000.48
2023-06-02 23:27:00,SystemResetWarning,0826.8,5.01,000.00,029.7,025.8,000.0,037.9,031.1,20.7,0000.0,0001.41,0000.79,0000.48
2023-06-02 23:28:00,SystemResetWarning,0826.8,5.00,000.00,029.6,026.1,000.0,037.9,031.0,20.2,0000.0,0001.31,0000.76,0000.47
2023-06-02 23:29:00,SystemResetWarning,0826.7,4.99,000.00,029.5,026.4,000.0,037.9,031.0,20.8,0000.0,0001.32,0000.77,0000.48
2023-06-02 23:30:00,SystemResetWarning,0826.7,5.00,000.00,029.5,026.7,000.0,037.9,031.1,20.5,0000.0,0001.30,0000.77,0000.50
2023-06-02 23:31:00,SystemResetWarning,0826.7,5.00,000.00,029.5,027.0,000.0,037.9,031.1,20.7,0000.0,0001.25,0000.76,0000.50
2023-06-02 23:32:00,SystemResetWarning,0826.6,5.01,000.00,029.5,027.3,000.0,037.9,031.1,20.9,0000.0,0001.19,0000.72,0000.50
2023-06-02 23:33:00,SystemResetWarning,0826.6,4.99,000.00,029.5,027.5,000.0,037.9,031.2,20.5,0000.0,0001.21,0000.73,0000.51
2023-06-02 23:34:00,SystemResetWarning,0826.6,5.00,000.00,029.5,027.7,000.0,037.9,031.2,21.5,0000.0,0001.16,0000.70,0000.51
2023-06-02 23:35:00,SystemResetWarning,0826.6,5.00,000.00,029.5,027.8,000.0,037.9,031.2,20.1,0000.0,0001.17,0000.70,0000.51
2023-06-02 23:36:00,SystemResetWarning,0826.6,5.00,000.00,029.6,028.0,000.0,037.9,031.2,20.2,0000.0,0001.20,0000.71,0000.51
2023-06-02 23:37:00,SystemResetWarning,0826.6,5.00,000.00,029.6,028.1,000.0,037.9,031.3,21.0,0000.0,0001.23,0000.73,0000.51
2023-06-02 23:38:00,SystemResetWarning,0826.6,5.00,000.00,029.6,028.2,000.0,037.9,031.3,20.1,0000.0,0001.22,0000.73,0000.52
2023-06-02 23:39:00,SystemResetWarning,0826.6,4.99,000.00,029.6,028.2,000.0,037.9,031.3,20.7,0000.0,0001.85,0000.72,0000.52
2023-06-02 23:40:00,SystemResetWarning,0826.6,5.01,000.00,029.6,028.3,000.0,037.9,031.4,21.5,0000.0,0002.04,0000.71,0000.52
2023-06-02 23:41:00,SystemResetWarning,0826.7,5.00,000.00,029.7,028.4,000.0,038.0,031.4,22.0,0000.0,0002.09,0000.72,0000.51
2023-06-02 23:42:00,SystemResetWarning,0826.8,4.99,000.00,029.7,028.4,000.0,038.0,031.4,21.8,0000.0,0002.14,0000.73,0000.51
2023-06-02 23:43:00,SystemResetWarning,0826.8,4.99,000.00,029.7,028.5,000.0,038.0,031.4,20.7,0000.0,0002.16,0000.74,0000.52
2023-06-02 23:44:00,SystemResetWarning,0826.7,5.00,000.00,029.8,028.3,000.0,038.0,031.4,21.2,0000.0,0002.44,0000.75,0000.52
2023-06-02 23:45:00,SystemResetWarning,0826.8,5.00,000.00,029.7,026.8,000.0,038.0,031.2,20.5,0000.0,0002.52,0000.77,0000.53
2023-06-02 23:46:00,SystemResetWarning,0826.8,5.00,000.00,029.7,025.9,000.0,037.9,031.1,20.4,0000.0,0002.54,0000.78,0000.53
2023-06-02 23:47:00,SystemResetWarning,0826.8,5.01,000.00,029.6,026.0,000.0,037.8,031.0,20.0,0000.0,0002.52,0000.77,0000.54
2023-06-02 23:48:00,SystemResetWarning,0826.8,5.01,000.00,029.5,026.2,000.0,037.9,031.0,20.3,0000.0,0002.53,0000.77,0000.55
2023-06-02 23:49:00,SystemResetWarning,0826.8,5.00,000.00,029.5,026.6,000.0,037.9,031.0,20.1,0000.0,0002.61,0000.77,0000.56
2023-06-02 23:50:00,SystemResetWarning,0826.7,5.00,000.00,029.5,026.9,000.0,037.9,031.1,20.5,0000.0,0001.98,0000.76,0000.56
2023-06-02 23:51:00,SystemResetWarning,0826.8,5.00,000.00,029.5,027.2,000.0,037.9,031.1,21.2,0000.0,0001.67,0000.76,0000.57
2023-06-02 23:52:00,SystemResetWarning,0826.7,4.99,000.00,029.5,027.5,000.0,037.9,031.2,20.9,0000.0,0001.69,0000.77,0000.58
2023-06-02 23:53:00,SystemResetWarning,0826.8,5.01,000.00,029.5,027.7,000.0,037.9,031.2,20.4,0000.0,0001.61,0000.74,0000.57
2023-06-02 23:54:00,SystemResetWarning,0826.7,5.00,000.00,029.6,027.9,000.0,037.9,031.3,20.5,0000.0,0001.67,0000.77,0000.57
2023-06-02 23:55:00,SystemResetWarning,0826.8,5.00,000.00,029.6,028.1,000.0,037.9,031.3,21.2,0000.0,0001.47,0000.81,0000.58
2023-06-02 23:56:00,SystemResetWarning,0826.8,4.99,000.00,029.6,028.2,000.0,037.9,031.3,21.0,0000.0,0001.44,0000.81,0000.59
2023-06-02 23:57:00,SystemResetWarning,0826.8,5.01,000.00,029.7,028.3,000.0,037.9,031.4,20.9,0000.0,0001.45,0000.81,0000.60
2023-06-02 23:58:00,SystemResetWarning,0826.9,5.01,000.00,029.7,028.4,000.0,038.0,031.4,21.0,0000.0,0001.54,0000.85,0000.61
2023-06-02 23:59:00,SystemResetWarning,0826.9,5.01,000.00,029.7,028.5,000.0,038.0,031.5,21.4,0000.0,0001.58,0000.89,0000.63
